Welcome to the New NWS' Forecast!
Most changes are behind the scenes, but click here for differences you might notice.

Regional Weather Roundup (RWR)

Issued by Gray - Portland, ME (GYX)

                            
000
ASUS41 KGYX 090105
RWRGYX
WEATHER ROUNDUP FOR MAINE AND NEW HAMPSHIRE
NATIONAL WEATHER SERVICE GRAY ME
800 PM EST SAT DEC 08 2018

MEZ002-005-006-010-012-015-018-020-021-024-026-027-029-090200-
MAINE
  
CITY           SKY/WX    TMP DP  RH WIND       PRES   REMARKS
PORTLAND       FAIR      18  -1  43 W6        30.45R                  
SANFORD        FAIR      16   3  56 W8        30.45R                  
BAR HARBOR     MOCLDY    13  -2  51 NW5       30.38R                  
WISCASSET      FAIR      15  -1  49 CALM      30.44R                  
ROCKLAND       FAIR      14  -2  49 W5        30.41R                  
FRYEBURG       FAIR      10  -3  55 CALM      30.41R                  
LEWISTONAUBURN FAIR      13  -2  51 NW5       30.42R                  
AUGUSTA        FAIR      14  -4  44 W6        30.40R                  
WATERVILLE     FAIR      13  -2  51 MISG      30.37R                  
BANGOR         CLOUDY    13  -3  49 NW5       30.37S                  
GREENVILLE       N/A      6  -7  54 NW12      30.23R WCI  -9          
MILLINOCKET    CLOUDY     9  -4  55 NW8       30.34R                  
HOULTON        FAIR       3  -3  76 W5        30.28S                  
PRESQUE ISLE   FAIR      -3  -6  87 W5        30.29S                  
FRENCHVILLE    FAIR       3  -4  72 NW8       30.22R                  
CARIBOU        FAIR       1  -6  72 W3        30.26S                  
$$

NHZ002-005-008-009-011-012-014-090200-
NEW HAMPSHIRE
  
CITY           SKY/WX    TMP DP  RH WIND       PRES   REMARKS
PORTSMOUTH     PTCLDY    19  -1  42 W7        30.46R                  
ROCHESTER      FAIR      18   1  47 CALM      30.44R                  
NASHUA         MOCLDY    17   8  67 CALM      30.48R                  
MANCHESTER     FAIR      22   2  42 W5        30.45R                  
CONCORD        FAIR      12   6  77 SE3       30.46R                  
LACONIA        FAIR      12   3  67 W3        30.44R                  
PLYMOUTH       CLOUDY    10   5  78 CALM      30.44R                  
BERLIN         FAIR       2  -6  69 CALM      30.35R                  
WHITEFIELD     CLOUDY     2  -3  80 CALM      30.38R                  
JAFFREY        MOCLDY    15  10  80 S3        30.41R                  
KEENE          FAIR      15   5  64 CALM      30.46R                  
LEBANON        CLOUDY    17   6  62 CALM      30.43R                  
MT WASHINGTON  BLWGSNOW  -8  -8 100 NW46G55     N/A  VSB 1/16WCI -41  
$$

VTZ005-007-008-090200-
VERMONT
  
CITY           SKY/WX    TMP DP  RH WIND       PRES   REMARKS
ST JOHNSBURY     N/A      9   2  73 MISG      30.40R                  
MONTPELIER     CLOUDY    11   5  77 CALM      30.41R                  
BURLINGTON     CLOUDY    17   7  64 CALM      30.44R                  
$$

MAZ007-012-024-CTZ003-RIZ002-NYZ038-NYZ072-090200-
SOUTHERN NEW ENGLAND AND NY
  
CITY           SKY/WX    TMP DP  RH WIND       PRES   REMARKS
BOSTON         FAIR      27   1  32 NW7       30.49R                  
WORCESTER      MOCLDY    20   4  50 W5        30.42R                  
NANTUCKET      FAIR      29   3  33 NW18G24   30.46R WCI  16          
PROVIDENCE     FAIR      26   7  44 W5        30.49R                  
HARTFORD       MOCLDY    25  14  63 CALM      30.48S                  
ALBANY         MOCLDY    25  17  72 W5        30.49S                  
NEW YORK CITY  FAIR      34  16  47 N7        30.51S                  
$$

ANZ081-ANZ082-ANZ150-NHZ014-MEZ023>029-090200-
COASTAL MARINE OBSERVATIONS
  
STATION/POSITION TIME  TEMP    WIND        PRES    WAVE
                       AIR SEA DIR/SP/G            HT/PER
                 (UTC) (F)     (DEG/KT/KT) (MB)    (FT/S)
MOUNT DESERT ROC 0100   21     300/ 24/ 27 1028.0R
MATINICUS ROCK   0000   21     310/ 22/ 27 1028.2R
ISLE OF SHOALS   0000   24     300/ 20/ 23 1030.2R
JEFFREYS LEDGE   0008      47                N/A     5/ 5
CASHES LEDGE BUO 0050   26 46              1028.9R   4/ 4
$$

.............KEY..............
   WCI - WIND CHILL
   TC  - TEMPERATURE IN CELSIUS
   VSB - VISIBILITY IN MILES
   HX  - HEAT INDEX
   FAIR- INDICATES FEW OR NO CLOUDS BELOW 12,000 FT, WITH NO 
         SIGNIFICANT WEATHER AND/OR OBSTRUCTIONS TO VISIBILITY.